Cedar Rapids, IA

4:36 AM CST on December 10, 2019 (GMT -0600)
The Eastern Iowa Airport

Weather History for KCID - August, 2019

Change the Weather History Date:

Thursday, August 8, 2019

  Actual Average Record
Temperature  
Mean Temperature 71 °F 72 °F  
Max Temperature 81 °F 82 °F 100 °F (1918)
Min Temperature 60 °F 62 °F 47 °F (1904)
Degree Days  
Heating Degree Days 0 0  
Month to date heating degree days 0 0  
Since 1 June heating degree days 11 33  
Since 1 July heating degree days 0 4  
Cooling Degree Days 6 7  
Month to date cooling degree days 58 58  
Year to date cooling degree days 560 525  
Since 1 June cooling degree days 532 476  
Growing Degree Days 22 (Base 50)    
Moisture  
Dew Point 62 °F    
Average Humidity 73    
Maximum Humidity 100    
Minimum Humidity 45    
Precipitation  
Precipitation 0.00 in 0.14 in 2.27 in (1967)
Month to date precipitation 0.89 1.13  
Year to date precipitation 23.48 21.95  
Sea Level Pressure  
Sea Level Pressure 29.90 in    
Wind  
Wind Speed 7 mph (NW)    
Max Wind Speed 15 mph    
Max Gust Speed 21 mph    
Visibility 10 miles    
Events      
T = Trace of Precipitation, MM = Missing Value Source: NWS Daily Summary

Daily Weather History Graph

Daily Weather History Graph

Search for Another Location

Airport or City:

Astronomy

Aug. 08, 2019 Rise Set
Actual Time 6:07 AM CDT 8:16 PM CDT
Civil Twilight 5:36 AM CDT 8:47 PM CDT
Nautical Twilight 4:58 AM CDT 9:25 PM CDT
Astronomical Twilight 4:17 AM CDT 10:06 PM CDT
Moon 2:53 PM CDT (8/8) 12:30 AM CDT (8/8)
Length of Visible Light 15h 10m
Length of Day
14h 09m
First Quarter, 60% of the Moon is Illuminated
Aug 8
First Quarter
Aug 15
Full
Aug 23
Last Quarter
Aug 30
New
Sep 5
First Quarter

Hourly Weather History & Observations

Time (CDT) Temp. Heat Index Dew Point Humidity Pressure Visibility Wind Dir Wind Speed Gust Speed Precip Events Conditions
12:52 AM 69.1 °F - 66.9 °F 93% 29.84 in 10.0 mi WNW 4.6 mph - N/A   Unknown
1:52 AM 69.1 °F - 66.9 °F 93% 29.83 in 10.0 mi NW 4.6 mph - N/A   Unknown
2:52 AM 69.1 °F - 66.9 °F 93% 29.83 in 10.0 mi NNW 5.8 mph - N/A   Unknown
3:52 AM 66.9 °F - 66.0 °F 97% 29.82 in 10.0 mi NNW 5.8 mph - N/A   Unknown
4:52 AM 66.0 °F - 66.0 °F 100% 29.83 in 10.0 mi NNW 4.6 mph - N/A   Clear
5:52 AM 64.9 °F - 64.0 °F 97% 29.86 in 10.0 mi NW 3.5 mph - N/A   Clear
6:52 AM 66.0 °F - 64.9 °F 96% 29.88 in 10.0 mi NNW 3.5 mph - N/A   Clear
7:52 AM 69.1 °F - 66.0 °F 90% 29.89 in 10.0 mi NW 3.5 mph - N/A   Clear
8:52 AM 71.1 °F - 64.9 °F 81% 29.91 in 10.0 mi WNW 4.6 mph - N/A   Clear
9:52 AM 73.9 °F - 66.0 °F 76% 29.92 in 10.0 mi NNW 5.8 mph - N/A   Clear
10:52 AM 73.0 °F - 64.9 °F 76% 29.93 in 10.0 mi West 6.9 mph - N/A   Clear
11:52 AM 77.0 °F - 63.0 °F 62% 29.93 in 10.0 mi West 10.4 mph - N/A   Scattered Clouds
12:52 PM 79.0 °F - 63.0 °F 58% 29.92 in 2.5 mi NW 10.4 mph - N/A   Haze
12:57 PM 79.0 °F - 63.0 °F 58% 29.94 in 10.0 mi WNW 9.2 mph - N/A   Scattered Clouds
1:52 PM 80.1 °F 81.5 °F 63.0 °F 56% 29.92 in 10.0 mi NNW 9.2 mph - N/A   Scattered Clouds
2:52 PM 80.1 °F 81.1 °F 61.0 °F 52% 29.91 in 10.0 mi WNW 11.5 mph - N/A   Clear
3:52 PM 80.1 °F 80.7 °F 59.0 °F 48% 29.90 in 10.0 mi NW 10.4 mph - N/A   Clear
4:52 PM 81.0 °F 81.1 °F 57.9 °F 45% 29.89 in 10.0 mi NNW 11.5 mph - N/A   Clear
5:52 PM 79.0 °F - 55.0 °F 44% 29.89 in 10.0 mi NW 10.4 mph - N/A   Clear
6:52 PM 78.1 °F - 57.0 °F 48% 29.89 in 10.0 mi NNW 8.1 mph - N/A   Clear
7:52 PM 71.1 °F - 59.0 °F 66% 29.91 in 10.0 mi NW 4.6 mph - N/A   Clear
8:52 PM 69.1 °F - 57.9 °F 68% 29.92 in 10.0 mi NW 3.5 mph - N/A   Clear
9:52 PM 66.0 °F - 59.0 °F 78% 29.93 in 10.0 mi NNW 4.6 mph - N/A   Clear
10:52 PM 63.0 °F - 57.9 °F 84% 29.94 in 10.0 mi NW 5.8 mph - N/A   Clear
11:52 PM 62.1 °F - 57.9 °F 86% 29.95 in 10.0 mi NW 4.6 mph - N/A   Clear